Skip Page Navigation
NASA JPL Caltech
NASA Logo - Jet Propulsion Laboratory + View the NASA Portal
+ Center for Near-Earth Object Studies
JPL Home Earth Solar System Stars & Galaxies Technology
JPL Solar System Dynamics
BODIES ORBITS EPHEMERIDES TOOLS PHYSICAL DATA DISCOVERY FAQ SITE MAP
JPL Small-Body Database Browser
Search: [ help ]  
15213 (1980 UO1)
Classification: Main-belt Asteroid          SPK-ID: 2015213
Ephemeris | Orbit Diagram | Orbital Elements | Mission Design | Physical Parameters | Discovery Circumstances | Close-Approach Data ]

[ show orbit diagram ]
Orbital Elements at Epoch 2459000.5 (2020-May-31.0) TDB
Reference: JPL 34 (heliocentric ecliptic J2000)
 Element Value Uncertainty (1-sigma)   Units 
e .03523519216060068 3.882e-08  
a 3.140456041041419 2.296e-08 au
q 3.029801468963405 1.2132e-07 au
i 21.57602355423475 5.423e-06 deg
node 220.1445954749301 1.0956e-05 deg
peri 111.9857801419219 7.5098e-05 deg
M 98.02513103624075 7.4027e-05 deg
tp 2458446.993869153684
(2018-Nov-24.49386915)
0.00041838 TDB
period 2032.766546682858
5.57
2.2293e-05
6.103e-08
d
yr
n .1770985461106988 1.9422e-09 deg/d
Q 3.251110613119432 2.3769e-08 au
  Orbit Determination Parameters
   # obs. used (total)      1405  
   data-arc span      14350 days (39.29 yr)  
   first obs. used      1980-10-14  
   last obs. used      2020-01-28  
   planetary ephem.      DE431  
   SB-pert. ephem.      SB431-N16  
   condition code      0  
   norm. resid. RMS      .44578  
   source      ORB  
   producer      Otto Matic  
   solution date      2020-Feb-22 21:13:13  

Additional Information
 Earth MOID = 2.0774 au 
 Jupiter MOID = 1.88422 au 
 T_jup = 3.101 
[ show covariance matrix ]

Ephemeris | Orbit Diagram | Orbital Elements | Mission Design | Physical Parameters | Discovery Circumstances | Close-Approach Data ]

Physical Parameter Table
Parameter Symbol Value Units Sigma Reference Notes
absolute magnitude H 13.2   n/a MPO502285  
diameter diameter 15.676 km 0.348 urn:nasa:pds:neowise_diameters_albedos::2.0[mainbelt] (http://adsabs.harvard.edu/abs/2011ApJ...741...68M)  
rotation period rot_per 4.933 h n/a LCDB (Rev. 2019-August); Warner et al., 2009 Result based on less than full coverage, so that the period may be wrong by 30 percent or so.
Published Reference List:
[Waszczak, A.; Chang, C.-K.; Ofeck, E.O.; Laher, F.; et al. (2015) Astron. J. 150, A75.]
geometric albedo albedo 0.050   0.007 urn:nasa:pds:neowise_diameters_albedos::2.0[mainbelt] (http://adsabs.harvard.edu/abs/2011ApJ...741...68M)  

15213 (1980 UO1)          Discovered 1980-Oct-31 by Bus, S. J. at Palomar
Reference: 20000621/Numbers.arcLast Updated: 2004-04-19

[ show close-approach data ]
Alternate Designations
 1980 UO1 = 2000 FJ49 
Ephemeris | Orbit Diagram | Orbital Elements | Mission Design | Physical Parameters | Discovery Circumstances | Close-Approach Data ]
ABOUT SSD CREDITS/AWARDS PRIVACY/COPYRIGHT GLOSSARY LINKS
FirstGov 2020-Oct-28 00:30 UT
(server date/time)  
NASA Home Page
Site Manager:   Ryan S. Park
Webmaster  Alan B. Chamberlin